Погода в Чардаре

Погода в Чардаре : погода сейчас, прогноз погоды и архив. Всё, что Вы хотите узнать о погоде в Чардаре!

Хотите узнать прогноз погоды в Чардаре? Тогда Вам сюда: Погода в Чардаре

Поиск расширенной информации на нашем сайте:

Другие новости

Новости СМИ2

Главная страница сайта

Новости сайта

03.07.2017

Напоминаем, что на нашем специализированном сайте Метеоцентр.Азия вы можете получить высокодетализированные автоматические прогнозы погоды по пунктам России, СНГ и мира в авиационном формате (включающие направление и скорость ветра, видимость, явления погоды, количество и форму облачности, нижнюю и верхнюю границу облачности).


Погода в Чардаре - сегодня

Время (UTC), дата Ветер
(°,м/с) 
Видим.   Явления Облачность Т
(°С)
Тd
(°С)
f(%) Тe
(°С)
Pmin
(гПа)
dP
(гПа)
Po
(мм)
O2
(г/м3)
Тmin Tmax R s Состояние
почвы
12 09.12.17 320 (СЗ) 20000 м    9/8 600 м кучево-дожд., средняя 
[Cb cap|Ac As]
+5 +1.5 78 +2  1023.3  1.9  740  293           
15 09.12.17 340 (С) 20000 м    10/10 600 м 
[Sc]
+1.2 -1.4 83 -3  1027.8  3.9  745  299    +8.5       
18 09.12.17 300 (СЗ) 4000 м  снег  10/10 600 м 
[Ns]
-0.2 -1.1 94 -2  1031.8  3.6  748  302    +8.5       
21 09.12.17 тихо ()   20000 м  {снег}  10/10 600 м 
[Sc]
-2.4 -3.6 91 -2  1035.7  3.4  750  305           
00 10.12.17 030 (СВ) 20000 м    3/0 средняя 
[Ac As]
-4.6 -6.6 86 -6  1037.2  1.3  751  309           
03 10.12.17 060 (СВ) 4000 м  дымка{снег}  3/3 600 м 
[Sc]
-5 -7.1 85 -6  1036.9  -0.5  751  309      равномерный
сухой снег
100% 
06 10.12.17 040 (СВ) 2000 м  дымка  ясно 600 м 
-6.4 -8.3 86 -9  1036  -0.9  750  310  -5.6       
09 10.12.17 040 (СВ) 20000 м    ясно 
-2.7 -5.7 80 -5  1033.8  -1.7  749  305           
12 10.12.17 360 (С) 20000 м    ясно 
-3.7 -7.4 75 -5  1033.2  -0.7  749  307           
15 10.12.17 010 (С) 20000 м    1/1 600 м 
[Sc]
-6.8 -9.2 83 -9  1033.5  -0.2  748  310    -1.8       
18 10.12.17 010 (С) 20000 м    ясно 
-7.9 -9.7 87 -12  1031.1  -2.5  746  311    -1.8       
21 10.12.17 020 (С) 20000 м    ясно 
-9.1 -11.6 82 -12  1029.9  -1.2  746  312           
00 11.12.17 360 (С) 20000 м    ясно 
-10.2 -12.2 85 -14  1029.6  -0.4  745  313           
03 11.12.17 360 (С) 4000 м  дымка  4/0 верхняя 
[Cs]
-10.7 -12.7 85 -15  1030.1  0.3  746  314        равномерный
сухой снег
100% 
06 11.12.17 360 (С) 4000 м  дымка  8/0 верхняя 
[Ci sp]
-9.9 -11.9 85 -15  1030.3  0.4  746  313  -10.8         
09 11.12.17 360 (С) 20000 м    8/0 верхняя 
[Ci fib]
-5.9 -8.9 79 -8  1029.7  -0.1  746  308           
12 11.12.17 340 (С) 20000 м    6/0 средняя, верхняя 
[Ac lent|Ci sp]
-6.4 -8.7 84 -10  1027.8  -1.9  744  308           
15 11.12.17 020 (С) 20000 м    10/0 верхняя 
[Ci]
-6.1 -7.6 89 -11  1027.9  0.1  744  308    -5.5       
18 11.12.17 350 (С) 20000 м    8/0 средняя 
[Ac lent]
-6 -7.1 92 -9  1027.8  -0.1  744  307    -5.5       
21 11.12.17 350 (С) 20000 м    10/10 600 м 
[Sc]
-8.5 -10 89 -11  1028.3  0.2  744  311           
00 12.12.17 340 (С) 20000 м    10/10 600 м 
[Sc]
-9.6 -11.2 88 -13  1028.4  744  312           
03 12.12.17 020 (С) 20000 м    5/0 средняя 
[Ac As]
-10.9 -12.9 85 -14  1030  1.3  745  314        равномерный
сухой снег
100% 
06 12.12.17 020 (С) 10 км    5/0 средняя 
[Ac As]
-9.8 -11.5 87 -12  1031.5  1.6  747  313  -11.1         
09 12.12.17 340 (С) 10 км    5/4 600 м средняя 
[Sc|Ac trans]
-6.2 -8.1 86 -8  1030.7  -0.3  746  309           
12 12.12.17 030 (СВ) 10 км    8/0 средняя, верхняя 
[Ac As|Ci sp]
-6.8 -8.8 86 -8  1032.5  1.7  748  310           
Время (UTC), дата Ветер
(°,м/с) 
Видим.   Явления Облачность Т
(°С)
Тd
(°С)
f(%) Тe
(°С)
Pmin
(гПа)
dP
(гПа)
Po
(мм)
O2
(г/м3)
Тmin Tmax R s Состояние
почвы

Для получения пояснительной информации подведите курсор к названию столбца.

ПОГОДА в Чардаре - архив

Всё, что Вы хотите узнать о погоде в Чардаре - удобно и подробно!

Выберите нужную дату (начиная с 1 января 2015* года) и нажмите кнопку "Найти".
Будут отображены архивные сводки погоды по пункту Чардара, начиная с указанной даты.


Отображать данные в формате CSV (для использования в таблицах Excel)


Внимание! Наш архив погоды предназначен исключительно для личного некоммерческого использования в познавательных целях. Если Вам необходимы официальные справки о состоянии погоды (для производственных, юридических, коммерческих и т.п. целей), обращайтесь в органы Росгидромета.

*Примечание: данная дата относится к архиву по метеостанциям СССР (Россия, СНГ, Балтия).
Архив по метеостанциям Зарубежной Европы и Азии (кроме Китая) хранится 10 дней, по другим регионам земного шара (Китай, Африка, Америка, Австралия, Океания) - 1 день.

Чардара - район местоположения метеостанции


Название, широта, долгота, высота метеостанции:
Чардара 41.4°ш. 68°д. 275 м над ур. моря [Казахстан]

Дополнительная информация

В oтличие oт бoльшинства пoгoдных сайтoв мы публикуем пoдрoбную метеoинфoрмацию в детальнoм прoфессиoнальнoм фoрмате.

Характеристики температуры и влажнoсти вoздуха измеряются на высoте 2 м в тени вдали oт зданий и деревьев.
Скoрoсть ветра измеряется на высoте 10 м (на урoвне рoста челoвека скoрoсть ветра ниже в 1.5-2 раза). Если метеoстанция нахoдится в гoрoде или в лесу, тo скoрoсть ветра занижена на 2-4 м/с пo сравнению с oткрытым местoм. Скoрoсть ветра над акватoриями крупных рек и oзёр, а также на вершинах хoлмoв на 2-5 м/с выше, чем в oбычных услoвиях.
Атмoсфернoе давление в разных тoчках местнoсти мoжет значительнo oтличаться oт давления на метеoстанции, в зависимoсти oт услoвий рельефа (при пoдъёме на 10 м давление пoнижается примернo на 1 мм рт.ст.).